Time,TemperatureF,DewpointF,PressureIn,WindDirection,WindDirectionDegrees,WindSpeedMPH,WindSpeedGustMPH,Humidity,HourlyPrecipIn,Conditions,Clouds,dailyrainin,SoftwareType,DateUTC
2013-05-04 00:01:00,48.4,29.6,30.36,South,175,0.0,0.0,48,0.00,,---,0.00,VWS V14.01,2013-05-04 04:01:00,
2013-05-04 00:06:00,48.2,30.5,30.36,South,175,0.0,0.0,50,0.00,,---,0.00,VWS V14.01,2013-05-04 04:06:00,
2013-05-04 00:11:00,48.0,30.3,30.36,South,175,0.0,0.0,50,0.00,,---,0.00,VWS V14.01,2013-05-04 04:11:00,
2013-05-04 00:16:00,47.8,30.6,30.36,South,175,0.0,0.0,51,0.00,,---,0.00,VWS V14.01,2013-05-04 04:16:00,
2013-05-04 00:21:00,47.7,30.9,30.36,South,175,0.0,0.0,52,0.00,,---,0.00,VWS V14.01,2013-05-04 04:21:00,
2013-05-04 00:26:00,47.7,31.4,30.36,South,175,0.0,0.0,53,0.00,,---,0.00,VWS V14.01,2013-05-04 04:26:00,
2013-05-04 00:31:00,47.5,31.2,30.36,South,175,0.0,0.0,53,0.00,,---,0.00,VWS V14.01,2013-05-04 04:31:00,
2013-05-04 00:36:00,47.5,31.2,30.36,South,175,0.0,0.0,53,0.00,,---,0.00,VWS V14.01,2013-05-04 04:36:00,
2013-05-04 00:41:00,47.3,31.5,30.36,South,175,0.0,0.0,54,0.00,,---,0.00,VWS V14.01,2013-05-04 04:41:00,
2013-05-04 00:46:00,47.1,31.4,30.36,South,175,0.0,0.0,54,0.00,,---,0.00,VWS V14.01,2013-05-04 04:46:00,
2013-05-04 00:51:00,47.1,31.4,30.36,South,175,0.0,0.0,54,0.00,,---,0.00,VWS V14.01,2013-05-04 04:51:00,
2013-05-04 00:56:00,47.1,31.4,30.36,South,175,0.0,0.0,54,0.00,,---,0.00,VWS V14.01,2013-05-04 04:56:00,
2013-05-04 01:01:00,46.9,31.6,30.36,South,175,0.0,0.0,55,0.00,,---,0.00,VWS V14.01,2013-05-04 05:01:00,
2013-05-04 01:06:00,46.8,31.5,30.36,South,175,0.0,0.0,55,0.00,,---,0.00,VWS V14.01,2013-05-04 05:06:00,
2013-05-04 01:11:00,46.6,31.3,30.36,South,175,0.0,0.0,55,0.00,,---,0.00,VWS V14.01,2013-05-04 05:11:00,
2013-05-04 01:16:00,46.6,31.7,30.36,South,175,0.0,0.0,56,0.00,,---,0.00,VWS V14.01,2013-05-04 05:16:00,
2013-05-04 01:21:00,46.4,31.6,30.36,South,175,0.0,0.0,56,0.00,,---,0.00,VWS V14.01,2013-05-04 05:21:00,
2013-05-04 01:26:00,46.2,31.4,30.36,South,175,0.0,0.0,56,0.00,,---,0.00,VWS V14.01,2013-05-04 05:26:00,
2013-05-04 01:31:00,45.9,31.5,30.36,South,175,0.0,0.0,57,0.00,,---,0.00,VWS V14.01,2013-05-04 05:31:00,
2013-05-04 01:36:00,45.9,31.9,30.36,South,175,0.0,0.0,58,0.00,,---,0.00,VWS V14.01,2013-05-04 05:36:00,
2013-05-04 01:41:00,45.7,31.8,30.36,South,175,0.0,0.0,58,0.00,,---,0.00,VWS V14.01,2013-05-04 05:41:00,
2013-05-04 01:46:00,45.5,32.0,30.36,South,175,0.0,0.0,59,0.00,,---,0.00,VWS V14.01,2013-05-04 05:46:00,
2013-05-04 01:51:00,45.3,32.3,30.33,South,175,0.0,0.0,60,0.00,,---,0.00,VWS V14.01,2013-05-04 05:51:00,
2013-05-04 01:56:00,45.3,32.3,30.33,South,175,0.0,0.0,60,0.00,,---,0.00,VWS V14.01,2013-05-04 05:56:00,
2013-05-04 02:01:00,45.3,32.7,30.33,South,175,0.0,0.0,61,0.00,,---,0.00,VWS V14.01,2013-05-04 06:01:00,
2013-05-04 02:06:00,45.3,32.7,30.33,South,175,0.0,0.0,61,0.00,,---,0.00,VWS V14.01,2013-05-04 06:06:00,
2013-05-04 02:11:00,45.1,32.5,30.33,South,175,0.0,0.0,61,0.00,,---,0.00,VWS V14.01,2013-05-04 06:11:00,
2013-05-04 02:16:00,45.0,32.7,30.33,South,175,0.0,0.0,62,0.00,,---,0.00,VWS V14.01,2013-05-04 06:16:00,
2013-05-04 02:21:00,44.8,32.6,30.33,South,175,0.0,0.0,62,0.00,,---,0.00,VWS V14.01,2013-05-04 06:21:00,
2013-05-04 02:26:00,44.6,32.8,30.33,South,175,0.0,0.0,63,0.00,,---,0.00,VWS V14.01,2013-05-04 06:26:00,
2013-05-04 02:31:00,44.4,32.6,30.33,South,175,0.0,0.0,63,0.00,,---,0.00,VWS V14.01,2013-05-04 06:31:00,
2013-05-04 02:36:00,44.2,32.8,30.33,South,175,0.0,0.0,64,0.00,,---,0.00,VWS V14.01,2013-05-04 06:36:00,
2013-05-04 02:41:00,44.1,32.7,30.33,South,175,0.0,0.0,64,0.00,,---,0.00,VWS V14.01,2013-05-04 06:41:00,
2013-05-04 02:46:00,44.1,33.1,30.33,South,175,0.0,0.0,65,0.00,,---,0.00,VWS V14.01,2013-05-04 06:46:00,
2013-05-04 02:51:00,44.1,33.4,30.33,South,175,0.0,0.0,66,0.00,,---,0.00,VWS V14.01,2013-05-04 06:51:00,
2013-05-04 02:56:00,44.1,33.4,30.33,South,175,0.0,0.0,66,0.00,,---,0.00,VWS V14.01,2013-05-04 06:56:00,
2013-05-04 03:01:00,44.1,33.4,30.33,South,175,0.0,0.0,66,0.00,,---,0.00,VWS V14.01,2013-05-04 07:01:00,
2013-05-04 03:06:00,43.9,33.3,30.33,South,175,0.0,0.0,66,0.00,,---,0.00,VWS V14.01,2013-05-04 07:06:00,
2013-05-04 03:11:00,43.7,33.5,30.33,South,175,0.0,0.0,67,0.00,,---,0.00,VWS V14.01,2013-05-04 07:11:00,
2013-05-04 03:16:00,43.7,33.5,30.33,South,175,0.0,0.0,67,0.00,,---,0.00,VWS V14.01,2013-05-04 07:16:00,
2013-05-04 03:21:00,43.5,33.7,30.33,South,175,0.0,0.0,68,0.00,,---,0.00,VWS V14.01,2013-05-04 07:21:00,
2013-05-04 03:26:00,43.5,33.7,30.33,South,175,0.0,0.0,68,0.00,,---,0.00,VWS V14.01,2013-05-04 07:26:00,
2013-05-04 03:31:00,43.5,33.7,30.33,South,175,0.0,0.0,68,0.00,,---,0.00,VWS V14.01,2013-05-04 07:31:00,
2013-05-04 03:36:00,43.2,33.3,30.33,South,175,0.0,0.0,68,0.00,,---,0.00,VWS V14.01,2013-05-04 07:36:00,
2013-05-04 03:41:00,43.0,33.2,30.33,South,175,0.0,0.0,68,0.00,,---,0.00,VWS V14.01,2013-05-04 07:41:00,
2013-05-04 03:46:00,43.0,33.2,30.33,South,175,0.0,0.0,68,0.00,,---,0.00,VWS V14.01,2013-05-04 07:46:00,
2013-05-04 03:51:00,42.8,33.3,30.33,South,175,0.0,0.0,69,0.00,,---,0.00,VWS V14.01,2013-05-04 07:51:00,
2013-05-04 03:56:00,42.6,33.2,30.33,South,175,0.0,0.0,69,0.00,,---,0.00,VWS V14.01,2013-05-04 07:56:00,
2013-05-04 04:01:00,42.4,33.0,30.33,South,175,0.0,0.0,69,0.00,,---,0.00,VWS V14.01,2013-05-04 08:01:00,
2013-05-04 04:06:00,42.4,33.0,30.33,South,175,0.0,0.0,69,0.00,,---,0.00,VWS V14.01,2013-05-04 08:06:00,
2013-05-04 04:11:00,42.3,32.8,30.33,South,175,0.0,0.0,69,0.00,,---,0.00,VWS V14.01,2013-05-04 08:11:00,
2013-05-04 04:16:00,42.3,33.2,30.33,South,175,0.0,0.0,70,0.00,,---,0.00,VWS V14.01,2013-05-04 08:16:00,
2013-05-04 04:21:00,42.4,33.4,30.30,South,175,0.0,0.0,70,0.00,,---,0.00,VWS V14.01,2013-05-04 08:21:00,
2013-05-04 04:26:00,42.4,33.4,30.30,South,175,0.0,0.0,70,0.00,,---,0.00,VWS V14.01,2013-05-04 08:26:00,
2013-05-04 04:31:00,42.4,33.7,30.30,South,175,0.0,0.0,71,0.00,,---,0.00,VWS V14.01,2013-05-04 08:31:00,
2013-05-04 04:36:00,42.4,33.7,30.30,South,175,0.0,0.0,71,0.00,,---,0.00,VWS V14.01,2013-05-04 08:36:00,
2013-05-04 04:41:00,42.4,33.7,30.30,South,175,0.0,0.0,71,0.00,,---,0.00,VWS V14.01,2013-05-04 08:41:00,
2013-05-04 04:46:00,42.3,33.5,30.30,South,175,0.0,0.0,71,0.00,,---,0.00,VWS V14.01,2013-05-04 08:46:00,
2013-05-04 04:51:00,42.1,33.4,30.30,South,175,0.0,0.0,71,0.00,,---,0.00,VWS V14.01,2013-05-04 08:51:00,
2013-05-04 04:56:00,41.9,33.2,30.30,South,175,0.0,0.0,71,0.00,,---,0.00,VWS V14.01,2013-05-04 08:56:00,
2013-05-04 05:01:00,41.9,33.5,30.30,South,175,0.0,0.0,72,0.00,,---,0.00,VWS V14.01,2013-05-04 09:01:00,
2013-05-04 05:06:00,41.7,33.4,30.30,South,175,0.0,0.0,72,0.00,,---,0.00,VWS V14.01,2013-05-04 09:06:00,
2013-05-04 05:11:00,41.7,33.4,30.30,South,175,0.0,0.0,72,0.00,,---,0.00,VWS V14.01,2013-05-04 09:11:00,
2013-05-04 05:16:00,41.5,33.2,30.30,South,175,0.0,0.0,72,0.00,,---,0.00,VWS V14.01,2013-05-04 09:16:00,
2013-05-04 05:21:00,41.5,33.2,30.30,South,175,0.0,0.0,72,0.00,,---,0.00,VWS V14.01,2013-05-04 09:21:00,
2013-05-04 05:26:00,41.4,33.0,30.30,South,175,0.0,0.0,72,0.00,,---,0.00,VWS V14.01,2013-05-04 09:26:00,
2013-05-04 05:31:00,41.2,32.8,30.30,South,175,0.0,0.0,72,0.00,,---,0.00,VWS V14.01,2013-05-04 09:31:00,
2013-05-04 05:36:00,41.2,32.8,30.30,South,175,0.0,0.0,72,0.00,,---,0.00,VWS V14.01,2013-05-04 09:36:00,
2013-05-04 05:41:00,41.2,33.2,30.30,South,175,0.0,0.0,73,0.00,,---,0.00,VWS V14.01,2013-05-04 09:41:00,
2013-05-04 05:46:00,41.2,33.2,30.30,South,175,0.0,0.0,73,0.00,,---,0.00,VWS V14.01,2013-05-04 09:46:00,
2013-05-04 05:51:00,41.2,33.2,30.30,South,175,0.0,0.0,73,0.00,,---,0.00,VWS V14.01,2013-05-04 09:51:00,
2013-05-04 05:56:00,41.2,33.2,30.30,South,175,0.0,0.0,73,0.00,,---,0.00,VWS V14.01,2013-05-04 09:56:00,
2013-05-04 06:01:00,41.2,33.2,30.30,South,175,0.0,0.0,73,0.00,,---,0.00,VWS V14.01,2013-05-04 10:01:00,
2013-05-04 06:06:00,41.2,33.2,30.30,South,175,0.0,0.0,73,0.00,,---,0.00,VWS V14.01,2013-05-04 10:06:00,
2013-05-04 06:11:00,41.2,33.2,30.30,South,175,0.0,0.0,73,0.00,,---,0.00,VWS V14.01,2013-05-04 10:11:00,
2013-05-04 06:16:00,41.2,33.5,30.30,South,175,0.0,0.0,74,0.00,,---,0.00,VWS V14.01,2013-05-04 10:16:00,
2013-05-04 06:21:00,41.2,33.5,30.30,South,175,0.0,0.0,74,0.00,,---,0.00,VWS V14.01,2013-05-04 10:21:00,
2013-05-04 06:26:00,41.4,33.7,30.30,South,175,0.0,0.0,74,0.00,,---,0.00,VWS V14.01,2013-05-04 10:26:00,
2013-05-04 06:31:00,41.5,33.9,30.30,South,175,0.0,0.0,74,0.00,,---,0.00,VWS V14.01,2013-05-04 10:31:00,
2013-05-04 06:36:00,41.7,34.1,30.33,South,175,0.0,0.0,74,0.00,,---,0.00,VWS V14.01,2013-05-04 10:36:00,
2013-05-04 06:41:00,42.3,34.9,30.33,South,175,0.0,0.0,75,0.00,,---,0.00,VWS V14.01,2013-05-04 10:41:00,
2013-05-04 06:46:00,42.8,35.4,30.33,South,175,0.0,0.0,75,0.00,,---,0.00,VWS V14.01,2013-05-04 10:46:00,
2013-05-04 06:51:00,43.5,36.5,30.33,South,175,0.0,0.0,76,0.00,,---,0.00,VWS V14.01,2013-05-04 10:51:00,
2013-05-04 06:56:00,43.5,36.1,30.33,South,175,0.0,0.0,75,0.00,,---,0.00,VWS V14.01,2013-05-04 10:56:00,
2013-05-04 07:01:00,43.5,36.1,30.33,South,175,0.0,0.0,75,0.00,,---,0.00,VWS V14.01,2013-05-04 11:01:00,
2013-05-04 07:06:00,43.7,36.0,30.33,South,175,0.0,0.0,74,0.00,,---,0.00,VWS V14.01,2013-05-04 11:06:00,
2013-05-04 07:11:00,44.1,36.3,30.33,South,175,0.0,0.0,74,0.00,,---,0.00,VWS V14.01,2013-05-04 11:11:00,
2013-05-04 07:16:00,44.4,37.0,30.33,South,175,0.0,0.0,75,0.00,,---,0.00,VWS V14.01,2013-05-04 11:16:00,
2013-05-04 07:21:00,44.8,37.3,30.33,South,175,0.0,0.0,75,0.00,,---,0.00,VWS V14.01,2013-05-04 11:21:00,
2013-05-04 07:26:00,45.1,37.7,30.33,South,175,0.0,0.0,75,0.00,,---,0.00,VWS V14.01,2013-05-04 11:26:00,
2013-05-04 07:31:00,45.5,37.7,30.33,South,175,0.0,2.7,74,0.00,,---,0.00,VWS V14.01,2013-05-04 11:31:00,
2013-05-04 07:36:00,46.0,38.6,30.30,South,175,0.0,3.1,75,0.00,,---,0.00,VWS V14.01,2013-05-04 11:36:00,
2013-05-04 07:41:00,46.4,38.9,30.30,South,175,0.0,0.0,75,0.00,,---,0.00,VWS V14.01,2013-05-04 11:41:00,
2013-05-04 07:46:00,46.9,39.4,30.30,South,175,0.0,0.0,75,0.00,,---,0.00,VWS V14.01,2013-05-04 11:46:00,
2013-05-04 07:51:00,47.8,40.3,30.33,South,175,0.0,0.0,75,0.00,,---,0.00,VWS V14.01,2013-05-04 11:51:00,
2013-05-04 07:56:00,48.4,40.8,30.33,South,175,0.0,4.0,75,0.00,,---,0.00,VWS V14.01,2013-05-04 11:56:00,
2013-05-04 08:02:00,48.9,41.4,30.33,South,175,0.0,0.0,75,0.00,,---,0.00,VWS V14.01,2013-05-04 12:02:00,
2013-05-04 08:07:00,49.5,41.5,30.33,South,175,0.0,2.7,74,0.00,,---,0.00,VWS V14.01,2013-05-04 12:07:00,
2013-05-04 08:13:00,50.0,42.0,30.33,South,175,0.0,2.7,74,0.00,,---,0.00,VWS V14.01,2013-05-04 12:13:00,
2013-05-04 08:18:00,50.5,42.6,30.33,South,175,0.0,3.1,74,0.00,,---,0.00,VWS V14.01,2013-05-04 12:18:00,
2013-05-04 08:23:00,51.1,42.7,30.33,South,175,0.0,3.1,73,0.00,,---,0.00,VWS V14.01,2013-05-04 12:23:00,
2013-05-04 08:28:00,51.8,43.4,30.33,South,175,0.0,3.1,73,0.00,,---,0.00,VWS V14.01,2013-05-04 12:28:00,
2013-05-04 08:33:00,52.5,43.8,30.33,South,175,0.0,3.1,72,0.00,,---,0.00,VWS V14.01,2013-05-04 12:33:00,
2013-05-04 08:38:00,53.1,43.9,30.33,South,175,3.1,3.1,71,0.00,,---,0.00,VWS V14.01,2013-05-04 12:38:00,
2013-05-04 08:43:00,53.8,43.9,30.33,South,175,0.0,3.1,69,0.00,,---,0.00,VWS V14.01,2013-05-04 12:43:00,
2013-05-04 08:48:00,54.3,42.0,30.33,South,175,0.0,3.6,63,0.00,,---,0.00,VWS V14.01,2013-05-04 12:48:00,
2013-05-04 08:53:00,55.0,33.5,30.33,South,175,4.0,5.4,44,0.00,,---,0.00,VWS V14.01,2013-05-04 12:53:00,
2013-05-04 08:58:00,55.8,29.2,30.33,South,174,2.7,5.4,36,0.00,,---,0.00,VWS V14.01,2013-05-04 12:58:00,
2013-05-04 09:03:00,56.3,27.6,30.33,South,174,3.1,4.5,33,0.00,,---,0.00,VWS V14.01,2013-05-04 13:03:00,
2013-05-04 09:04:00,56.3,27.6,30.33,South,174,2.7,3.1,33,0.00,,---,0.00,VWS V14.01,2013-05-04 13:04:00,
2013-05-04 09:09:00,56.7,24.8,30.33,South,173,3.6,3.6,29,0.00,,---,0.00,VWS V14.01,2013-05-04 13:09:00,
2013-05-04 09:14:00,57.2,23.5,30.33,East,96,4.0,4.0,27,0.00,,---,0.00,VWS V14.01,2013-05-04 13:14:00,
2013-05-04 09:19:00,57.7,24.0,30.33,East,81,0.0,0.0,27,0.00,,---,0.00,VWS V14.01,2013-05-04 13:19:00,
2013-05-04 09:24:00,57.9,23.3,30.33,ENE,76,3.1,4.0,26,0.00,,---,0.00,VWS V14.01,2013-05-04 13:24:00,
2013-05-04 09:29:00,58.1,22.5,30.33,ENE,76,4.0,4.9,25,0.00,,---,0.00,VWS V14.01,2013-05-04 13:29:00,
2013-05-04 09:34:00,58.5,22.8,30.33,ENE,76,3.1,3.6,25,0.00,,---,0.00,VWS V14.01,2013-05-04 13:34:00,
2013-05-04 09:39:00,59.0,23.2,30.30,East,79,3.1,4.0,25,0.00,,---,0.00,VWS V14.01,2013-05-04 13:39:00,
2013-05-04 09:44:00,59.5,23.7,30.30,ENE,73,0.0,3.1,25,0.00,,---,0.00,VWS V14.01,2013-05-04 13:44:00,
2013-05-04 09:49:00,59.9,23.0,30.30,East,88,0.0,0.0,24,0.00,,---,0.00,VWS V14.01,2013-05-04 13:49:00,
2013-05-04 09:54:00,60.1,23.2,30.30,East,91,2.7,3.1,24,0.00,,---,0.00,VWS V14.01,2013-05-04 13:54:00,
2013-05-04 09:59:00,60.3,23.4,30.30,East,91,0.0,0.0,24,0.00,,---,0.00,VWS V14.01,2013-05-04 13:59:00,
2013-05-04 10:04:00,60.6,23.6,30.30,East,92,3.1,4.5,24,0.00,,---,0.00,VWS V14.01,2013-05-04 14:04:00,
2013-05-04 10:09:00,61.3,24.3,30.30,East,90,3.6,4.5,24,0.00,,---,0.00,VWS V14.01,2013-05-04 14:09:00,
2013-05-04 10:14:00,61.3,24.3,30.30,East,93,0.0,0.0,24,0.00,,---,0.00,VWS V14.01,2013-05-04 14:14:00,
2013-05-04 10:19:00,61.9,23.7,30.30,East,98,3.6,4.9,23,0.00,,---,0.00,VWS V14.01,2013-05-04 14:19:00,
2013-05-04 10:24:00,62.4,22.0,30.30,South,187,4.0,4.0,21,0.00,,---,0.00,VWS V14.01,2013-05-04 14:24:00,
2013-05-04 10:29:00,63.0,24.6,30.30,South,188,0.0,0.0,23,0.00,,---,0.00,VWS V14.01,2013-05-04 14:29:00,
2013-05-04 10:34:00,63.0,22.5,30.30,ESE,105,4.0,4.0,21,0.00,,---,0.00,VWS V14.01,2013-05-04 14:34:00,
2013-05-04 10:39:00,63.1,19.0,30.30,North,9,4.5,5.8,18,0.00,,---,0.00,VWS V14.01,2013-05-04 14:39:00,
2013-05-04 10:44:00,63.5,19.3,30.30,North,4,0.0,0.0,18,0.00,,---,0.00,VWS V14.01,2013-05-04 14:44:00,
2013-05-04 10:49:00,64.0,19.7,30.30,NNE,14,3.6,4.0,18,0.00,,---,0.00,VWS V14.01,2013-05-04 14:49:00,
2013-05-04 10:54:00,65.3,20.7,30.30,SE,134,0.0,3.6,18,0.00,,---,0.00,VWS V14.01,2013-05-04 14:54:00,
2013-05-04 10:59:00,66.0,20.0,30.30,ENE,67,5.8,5.8,17,0.00,,---,0.00,VWS V14.01,2013-05-04 14:59:00,
2013-05-04 11:04:00,66.2,17.2,30.30,East,100,5.8,5.8,15,0.00,,---,0.00,VWS V14.01,2013-05-04 15:04:00,
2013-05-04 11:09:00,67.1,17.9,30.30,ESE,113,3.1,3.1,15,0.00,,---,0.00,VWS V14.01,2013-05-04 15:09:00,
2013-05-04 11:14:00,67.8,18.5,30.30,East,84,0.0,0.0,15,0.00,,---,0.00,VWS V14.01,2013-05-04 15:14:00,
2013-05-04 11:19:00,68.2,13.7,30.30,ENE,76,3.1,4.5,12,0.00,,---,0.00,VWS V14.01,2013-05-04 15:19:00,
2013-05-04 11:24:00,68.5,13.9,30.27,ESE,115,0.0,2.7,12,0.00,,---,0.00,VWS V14.01,2013-05-04 15:24:00,
2013-05-04 11:29:00,69.3,14.5,30.27,East,97,5.8,6.3,12,0.00,,---,0.00,VWS V14.01,2013-05-04 15:29:00,
2013-05-04 11:34:00,69.1,14.4,30.27,East,95,6.7,8.3,12,0.00,,---,0.00,VWS V14.01,2013-05-04 15:34:00,
2013-05-04 11:39:00,68.7,14.1,30.27,ENE,66,5.8,6.3,12,0.00,,---,0.00,VWS V14.01,2013-05-04 15:39:00,
2013-05-04 11:44:00,69.6,14.8,30.27,East,92,6.7,6.7,12,0.00,,---,0.00,VWS V14.01,2013-05-04 15:44:00,
2013-05-04 11:49:00,69.8,14.9,30.27,East,87,5.8,6.9,12,0.00,,---,0.00,VWS V14.01,2013-05-04 15:49:00,
2013-05-04 11:54:00,70.0,15.1,30.27,ESE,117,2.7,3.6,12,0.00,,---,0.00,VWS V14.01,2013-05-04 15:54:00,
2013-05-04 11:59:00,71.1,13.9,30.27,ENE,65,0.0,2.7,11,0.00,,---,0.00,VWS V14.01,2013-05-04 15:59:00,
2013-05-04 12:04:00,71.6,12.2,30.27,East,96,5.4,5.4,10,0.00,,---,0.00,VWS V14.01,2013-05-04 16:04:00,
2013-05-04 12:09:00,71.6,12.2,30.27,NE,55,2.7,4.0,10,0.00,,---,0.00,VWS V14.01,2013-05-04 16:09:00,
2013-05-04 12:14:00,72.7,13.0,30.27,ENE,57,7.8,8.3,10,0.00,,---,0.00,VWS V14.01,2013-05-04 16:14:00,
2013-05-04 12:19:00,72.1,12.6,30.27,ENE,70,3.6,4.0,10,0.00,,---,0.00,VWS V14.01,2013-05-04 16:19:00,
2013-05-04 12:24:00,72.9,13.1,30.27,ENE,78,4.5,4.5,10,0.00,,---,0.00,VWS V14.01,2013-05-04 16:24:00,
2013-05-04 12:29:00,72.5,12.9,30.27,East,93,4.9,5.4,10,0.00,,---,0.00,VWS V14.01,2013-05-04 16:29:00,
2013-05-04 12:34:00,72.3,12.7,30.27,ENE,72,3.6,4.5,10,0.00,,---,0.00,VWS V14.01,2013-05-04 16:34:00,
2013-05-04 12:39:00,72.7,13.0,30.27,ENE,63,5.4,6.9,10,0.00,,---,0.00,VWS V14.01,2013-05-04 16:39:00,
2013-05-04 12:44:00,72.5,12.9,30.27,East,83,3.1,4.9,10,0.00,,---,0.00,VWS V14.01,2013-05-04 16:44:00,
2013-05-04 12:49:00,73.2,13.4,30.27,East,82,6.7,7.8,10,0.00,,---,0.00,VWS V14.01,2013-05-04 16:49:00,
2013-05-04 12:54:00,73.0,13.3,30.27,ENE,75,3.6,3.6,10,0.00,,---,0.00,VWS V14.01,2013-05-04 16:54:00,
2013-05-04 12:59:00,74.3,14.2,30.27,East,101,2.7,3.6,10,0.00,,---,0.00,VWS V14.01,2013-05-04 16:59:00,
2013-05-04 13:04:00,74.3,14.2,30.27,NE,46,0.0,3.6,10,0.00,,---,0.00,VWS V14.01,2013-05-04 17:04:00,
2013-05-04 13:09:00,74.3,14.2,30.27,ESE,107,3.6,4.5,10,0.00,,---,0.00,VWS V14.01,2013-05-04 17:09:00,
2013-05-04 13:14:00,74.1,14.1,30.27,East,92,4.0,4.0,10,0.00,,---,0.00,VWS V14.01,2013-05-04 17:14:00,
2013-05-04 13:19:00,73.9,14.0,30.27,ENE,67,3.6,4.9,10,0.00,,---,0.00,VWS V14.01,2013-05-04 17:19:00,
2013-05-04 13:24:00,74.3,14.2,30.24,ENE,68,4.0,4.9,10,0.00,,---,0.00,VWS V14.01,2013-05-04 17:24:00,
2013-05-04 13:29:00,74.3,14.2,30.24,ENE,61,4.9,5.4,10,0.00,,---,0.00,VWS V14.01,2013-05-04 17:29:00,
2013-05-04 13:34:00,74.7,14.5,30.24,East,92,4.5,4.5,10,0.00,,---,0.00,VWS V14.01,2013-05-04 17:34:00,
2013-05-04 13:39:00,75.0,14.8,30.24,ESE,121,3.1,5.4,10,0.00,,---,0.00,VWS V14.01,2013-05-04 17:39:00,
2013-05-04 13:44:00,74.7,14.5,30.24,ENE,74,5.4,7.4,10,0.00,,---,0.00,VWS V14.01,2013-05-04 17:44:00,
2013-05-04 13:49:00,74.7,14.5,30.24,NNE,30,4.9,5.8,10,0.00,,---,0.00,VWS V14.01,2013-05-04 17:49:00,
2013-05-04 13:54:00,74.7,14.5,30.24,ENE,70,5.4,5.8,10,0.00,,---,0.00,VWS V14.01,2013-05-04 17:54:00,
2013-05-04 13:59:00,75.2,14.9,30.24,ESE,109,4.5,4.9,10,0.00,,---,0.00,VWS V14.01,2013-05-04 17:59:00,
2013-05-04 14:04:00,73.9,14.0,30.24,ESE,114,3.6,4.9,10,0.00,,---,0.00,VWS V14.01,2013-05-04 18:04:00,
2013-05-04 14:09:00,74.1,14.1,30.24,SE,125,3.6,6.7,10,0.00,,---,0.00,VWS V14.01,2013-05-04 18:09:00,
2013-05-04 14:14:00,75.6,15.2,30.24,SE,133,4.5,4.9,10,0.00,,---,0.00,VWS V14.01,2013-05-04 18:14:00,
2013-05-04 14:19:00,76.1,15.6,30.24,ENE,77,4.0,6.7,10,0.00,,---,0.00,VWS V14.01,2013-05-04 18:19:00,
2013-05-04 14:24:00,75.6,15.2,30.24,East,94,0.0,3.1,10,0.00,,---,0.00,VWS V14.01,2013-05-04 18:24:00,
2013-05-04 14:29:00,75.4,15.1,30.24,East,82,2.7,4.0,10,0.00,,---,0.00,VWS V14.01,2013-05-04 18:29:00,
2013-05-04 14:34:00,75.7,15.4,30.24,NNW,330,4.9,4.9,10,0.00,,---,0.00,VWS V14.01,2013-05-04 18:34:00,
2013-05-04 14:39:00,75.4,15.1,30.24,ESE,117,4.0,6.3,10,0.00,,---,0.00,VWS V14.01,2013-05-04 18:39:00,
2013-05-04 14:44:00,75.0,14.8,30.24,ENE,58,3.6,4.0,10,0.00,,---,0.00,VWS V14.01,2013-05-04 18:44:00,
2013-05-04 14:49:00,75.7,15.4,30.24,ESE,119,4.9,4.9,10,0.00,,---,0.00,VWS V14.01,2013-05-04 18:49:00,
2013-05-04 14:54:00,75.2,14.9,30.24,ENE,60,4.0,7.8,10,0.00,,---,0.00,VWS V14.01,2013-05-04 18:54:00,
2013-05-04 14:59:00,75.2,14.9,30.24,NNE,32,6.9,6.9,10,0.00,,---,0.00,VWS V14.01,2013-05-04 18:59:00,
2013-05-04 15:04:00,75.0,14.8,30.24,East,96,4.0,7.8,10,0.00,,---,0.00,VWS V14.01,2013-05-04 19:04:00,
2013-05-04 15:09:00,74.8,14.7,30.21,ESE,119,5.4,5.4,10,0.00,,---,0.00,VWS V14.01,2013-05-04 19:09:00,
2013-05-04 15:18:00,75.6,15.2,30.21,ESE,113,6.3,7.8,10,0.00,,---,0.00,VWS V14.01,2013-05-04 19:18:00,
2013-05-04 15:23:00,75.2,14.9,30.21,SSE,168,4.9,6.3,10,0.00,,---,0.00,VWS V14.01,2013-05-04 19:23:00,
2013-05-04 15:28:00,75.2,14.9,30.21,ESE,115,4.5,9.6,10,0.00,,---,0.00,VWS V14.01,2013-05-04 19:28:00,
2013-05-04 15:33:00,74.7,14.5,30.21,SSE,156,3.6,6.7,10,0.00,,---,0.00,VWS V14.01,2013-05-04 19:33:00,
2013-05-04 15:38:00,75.0,14.8,30.21,ESE,118,5.4,11.0,10,0.00,,---,0.00,VWS V14.01,2013-05-04 19:38:00,
2013-05-04 15:43:00,74.7,14.5,30.21,ESE,120,3.6,8.7,10,0.00,,---,0.00,VWS V14.01,2013-05-04 19:43:00,
2013-05-04 15:48:00,74.7,14.5,30.21,SSE,159,5.8,8.7,10,0.00,,---,0.00,VWS V14.01,2013-05-04 19:48:00,
2013-05-04 15:53:00,74.5,14.4,30.21,WSW,240,7.4,7.8,10,0.00,,---,0.00,VWS V14.01,2013-05-04 19:53:00,
2013-05-04 15:58:00,73.4,13.6,30.21,South,189,3.6,13.9,10,0.00,,---,0.00,VWS V14.01,2013-05-04 19:58:00,
2013-05-04 16:03:00,73.4,13.6,30.21,South,176,6.3,10.1,10,0.00,,---,0.00,VWS V14.01,2013-05-04 20:03:00,
2013-05-04 16:08:00,72.5,12.9,30.21,ESE,114,3.6,8.7,10,0.00,,---,0.00,VWS V14.01,2013-05-04 20:08:00,
2013-05-04 16:13:00,71.6,12.2,30.21,SW,218,4.9,10.5,10,0.00,,---,0.00,VWS V14.01,2013-05-04 20:13:00,
2013-05-04 16:18:00,72.0,12.5,30.21,SE,139,4.0,13.0,10,0.00,,---,0.00,VWS V14.01,2013-05-04 20:18:00,
2013-05-04 16:23:00,72.1,12.6,30.21,SSE,150,7.8,9.2,10,0.00,,---,0.00,VWS V14.01,2013-05-04 20:23:00,
2013-05-04 16:28:00,71.6,12.2,30.21,SSE,158,4.0,9.2,10,0.00,,---,0.00,VWS V14.01,2013-05-04 20:28:00,
2013-05-04 16:33:00,71.8,12.3,30.21,ESE,108,6.9,11.0,10,0.00,,---,0.00,VWS V14.01,2013-05-04 20:33:00,
2013-05-04 16:38:00,70.9,11.6,30.21,ESE,118,5.8,8.7,10,0.00,,---,0.00,VWS V14.01,2013-05-04 20:38:00,
2013-05-04 16:43:00,70.7,11.5,30.21,SSW,209,6.7,7.4,10,0.00,,---,0.00,VWS V14.01,2013-05-04 20:43:00,
2013-05-04 16:48:00,70.5,11.4,30.21,SW,226,4.9,9.6,10,0.00,,---,0.00,VWS V14.01,2013-05-04 20:48:00,
2013-05-04 16:53:00,70.7,11.5,30.24,SSW,212,6.9,11.0,10,0.00,,---,0.00,VWS V14.01,2013-05-04 20:53:00,
2013-05-04 16:58:00,70.3,11.2,30.24,SSE,158,4.0,10.1,10,0.00,,---,0.00,VWS V14.01,2013-05-04 20:58:00,
2013-05-04 17:03:00,70.7,11.5,30.24,SE,143,4.0,6.9,10,0.00,,---,0.00,VWS V14.01,2013-05-04 21:03:00,
2013-05-04 17:08:00,69.8,10.8,30.24,ESE,109,3.1,9.6,10,0.00,,---,0.00,VWS V14.01,2013-05-04 21:08:00,
2013-05-04 17:13:00,69.4,10.5,30.24,SW,218,11.0,11.0,10,0.00,,---,0.00,VWS V14.01,2013-05-04 21:13:00,
2013-05-04 17:18:00,69.4,10.5,30.24,SE,144,7.4,9.2,10,0.00,,---,0.00,VWS V14.01,2013-05-04 21:18:00,
2013-05-04 17:23:00,69.1,10.3,30.24,SSE,155,3.1,10.1,10,0.00,,---,0.00,VWS V14.01,2013-05-04 21:23:00,
2013-05-04 17:28:00,69.1,10.3,30.24,SE,128,5.4,7.8,10,0.00,,---,0.00,VWS V14.01,2013-05-04 21:28:00,
2013-05-04 17:33:00,67.8,9.3,30.24,SSW,205,5.4,7.4,10,0.00,,---,0.00,VWS V14.01,2013-05-04 21:33:00,
2013-05-04 17:38:00,68.0,9.4,30.24,SSW,195,3.6,9.2,10,0.00,,---,0.00,VWS V14.01,2013-05-04 21:38:00,
2013-05-04 17:43:00,67.8,9.3,30.24,ESE,119,4.0,6.7,10,0.00,,---,0.00,VWS V14.01,2013-05-04 21:43:00,
2013-05-04 17:48:00,67.8,9.3,30.24,SSE,162,3.6,6.3,10,0.00,,---,0.00,VWS V14.01,2013-05-04 21:48:00,
2013-05-04 17:53:00,67.1,12.8,30.24,SW,223,5.8,8.3,12,0.00,,---,0.00,VWS V14.01,2013-05-04 21:53:00,
2013-05-04 17:58:00,66.7,12.5,30.24,SSE,155,4.9,8.3,12,0.00,,---,0.00,VWS V14.01,2013-05-04 21:58:00,
2013-05-04 18:03:00,66.2,12.1,30.24,SSE,151,7.8,7.8,12,0.00,,---,0.00,VWS V14.01,2013-05-04 22:03:00,
2013-05-04 18:08:00,65.5,11.6,30.24,ESE,111,3.1,6.7,12,0.00,,---,0.00,VWS V14.01,2013-05-04 22:08:00,
2013-05-04 18:13:00,65.5,11.6,30.24,SSE,164,7.8,7.8,12,0.00,,---,0.00,VWS V14.01,2013-05-04 22:13:00,
2013-05-04 18:18:00,64.9,12.9,30.24,SE,143,3.1,9.2,13,0.00,,---,0.00,VWS V14.01,2013-05-04 22:18:00,
2013-05-04 18:23:00,64.6,12.7,30.24,SE,143,5.8,8.7,13,0.00,,---,0.00,VWS V14.01,2013-05-04 22:23:00,
2013-05-04 18:28:00,63.9,12.1,30.24,SE,127,3.1,8.7,13,0.00,,---,0.00,VWS V14.01,2013-05-04 22:28:00,
2013-05-04 18:33:00,63.1,11.5,30.24,SW,233,5.8,6.9,13,0.00,,---,0.00,VWS V14.01,2013-05-04 22:33:00,
2013-05-04 18:38:00,63.1,11.5,30.24,SSE,159,4.0,9.6,13,0.00,,---,0.00,VWS V14.01,2013-05-04 22:38:00,
2013-05-04 18:43:00,63.0,16.1,30.24,SSE,159,0.0,8.3,16,0.00,,---,0.00,VWS V14.01,2013-05-04 22:43:00,
2013-05-04 18:48:00,62.4,15.7,30.24,SSW,205,4.9,8.3,16,0.00,,---,0.00,VWS V14.01,2013-05-04 22:48:00,
2013-05-04 18:53:00,61.9,15.2,30.24,South,186,3.1,5.8,16,0.00,,---,0.00,VWS V14.01,2013-05-04 22:53:00,
2013-05-04 18:58:00,61.3,14.8,30.24,SSW,199,4.9,7.8,16,0.00,,---,0.00,VWS V14.01,2013-05-04 22:58:00,
2013-05-04 19:03:00,60.6,14.2,30.24,SSE,153,3.6,6.7,16,0.00,,---,0.00,VWS V14.01,2013-05-04 23:03:00,
2013-05-04 19:08:00,60.1,17.7,30.24,South,190,6.7,9.2,19,0.00,,---,0.00,VWS V14.01,2013-05-04 23:08:00,
2013-05-04 19:13:00,59.9,17.6,30.24,South,189,3.6,6.7,19,0.00,,---,0.00,VWS V14.01,2013-05-04 23:13:00,
2013-05-04 19:18:00,59.4,17.1,30.24,South,189,2.7,4.5,19,0.00,,---,0.00,VWS V14.01,2013-05-04 23:18:00,
2013-05-04 19:23:00,59.0,20.2,30.24,South,186,3.1,6.3,22,0.00,,---,0.00,VWS V14.01,2013-05-04 23:23:00,
2013-05-04 19:28:00,58.6,19.9,30.24,SSW,196,6.7,6.7,22,0.00,,---,0.00,VWS V14.01,2013-05-04 23:28:00,
2013-05-04 19:33:00,58.3,19.6,30.24,SSW,194,4.9,5.8,22,0.00,,---,0.00,VWS V14.01,2013-05-04 23:33:00,
2013-05-04 19:38:00,57.9,21.4,30.27,South,185,3.6,6.3,24,0.00,,---,0.00,VWS V14.01,2013-05-04 23:38:00,
2013-05-04 19:43:00,57.2,20.8,30.27,South,182,2.7,6.3,24,0.00,,---,0.00,VWS V14.01,2013-05-04 23:43:00,
2013-05-04 19:48:00,56.8,21.4,30.27,South,180,4.0,5.4,25,0.00,,---,0.00,VWS V14.01,2013-05-04 23:48:00,
2013-05-04 19:53:00,56.3,21.0,30.27,South,178,4.9,5.4,25,0.00,,---,0.00,VWS V14.01,2013-05-04 23:53:00,
2013-05-04 19:58:00,55.9,21.6,30.27,South,178,0.0,4.5,26,0.00,,---,0.00,VWS V14.01,2013-05-04 23:58:00,
2013-05-04 20:03:00,55.6,21.3,30.27,South,176,4.5,6.7,26,0.00,,---,0.00,VWS V14.01,2013-05-05 00:03:00,
2013-05-04 20:08:00,55.2,21.0,30.27,South,176,3.6,5.4,26,0.00,,---,0.00,VWS V14.01,2013-05-05 00:08:00,
2013-05-04 20:13:00,55.0,21.7,30.27,South,176,0.0,4.0,27,0.00,,---,0.00,VWS V14.01,2013-05-05 00:13:00,
2013-05-04 20:18:00,54.5,21.2,30.27,South,176,4.0,6.3,27,0.00,,---,0.00,VWS V14.01,2013-05-05 00:18:00,
2013-05-04 20:23:00,54.3,21.9,30.27,South,176,0.0,3.1,28,0.00,,---,0.00,VWS V14.01,2013-05-05 00:23:00,
2013-05-04 20:28:00,53.8,21.5,30.27,South,174,0.0,6.9,28,0.00,,---,0.00,VWS V14.01,2013-05-05 00:28:00,
2013-05-04 20:33:00,53.4,21.1,30.27,South,173,2.7,4.9,28,0.00,,---,0.00,VWS V14.01,2013-05-05 00:33:00,
2013-05-04 20:38:00,53.1,21.7,30.27,South,174,2.7,5.4,29,0.00,,---,0.00,VWS V14.01,2013-05-05 00:38:00,
2013-05-04 20:43:00,52.9,22.3,30.27,South,174,2.7,6.3,30,0.00,,---,0.00,VWS V14.01,2013-05-05 00:43:00,
2013-05-04 20:48:00,52.5,22.8,30.27,South,173,3.1,4.0,31,0.00,,---,0.00,VWS V14.01,2013-05-05 00:48:00,
2013-05-04 20:53:00,52.3,22.6,30.27,South,173,0.0,3.6,31,0.00,,---,0.00,VWS V14.01,2013-05-05 00:53:00,
2013-05-04 20:58:00,52.2,23.2,30.27,South,173,0.0,3.1,32,0.00,,---,0.00,VWS V14.01,2013-05-05 00:58:00,
2013-05-04 21:03:00,51.8,23.6,30.27,South,173,3.6,5.8,33,0.00,,---,0.00,VWS V14.01,2013-05-05 01:03:00,
2013-05-04 21:08:00,51.6,24.2,30.30,South,173,0.0,4.5,34,0.00,,---,0.00,VWS V14.01,2013-05-05 01:08:00,
2013-05-04 21:13:00,51.4,24.7,30.30,South,173,0.0,5.4,35,0.00,,---,0.00,VWS V14.01,2013-05-05 01:13:00,
2013-05-04 21:18:00,51.3,24.6,30.30,South,173,0.0,3.1,35,0.00,,---,0.00,VWS V14.01,2013-05-05 01:18:00,
2013-05-04 21:23:00,51.1,25.1,30.30,South,173,0.0,0.0,36,0.00,,---,0.00,VWS V14.01,2013-05-05 01:23:00,
2013-05-04 21:28:00,50.7,24.8,30.30,South,173,0.0,2.7,36,0.00,,---,0.00,VWS V14.01,2013-05-05 01:28:00,
2013-05-04 21:33:00,50.5,25.2,30.30,South,173,0.0,4.5,37,0.00,,---,0.00,VWS V14.01,2013-05-05 01:33:00,
2013-05-04 21:38:00,50.2,24.9,30.30,South,173,0.0,0.0,37,0.00,,---,0.00,VWS V14.01,2013-05-05 01:38:00,
2013-05-04 21:43:00,50.2,24.9,30.30,South,173,0.0,0.0,37,0.00,,---,0.00,VWS V14.01,2013-05-05 01:43:00,
2013-05-04 21:48:00,50.0,24.8,30.30,South,173,0.0,0.0,37,0.00,,---,0.00,VWS V14.01,2013-05-05 01:48:00,
2013-05-04 21:53:00,49.8,25.2,30.30,South,173,0.0,2.7,38,0.00,,---,0.00,VWS V14.01,2013-05-05 01:53:00,
2013-05-04 21:58:00,49.5,24.9,30.30,South,173,0.0,0.0,38,0.00,,---,0.00,VWS V14.01,2013-05-05 01:58:00,
2013-05-04 22:03:00,49.3,24.8,30.30,South,173,0.0,0.0,38,0.00,,---,0.00,VWS V14.01,2013-05-05 02:03:00,
2013-05-04 22:08:00,49.1,25.2,30.30,South,173,0.0,4.0,39,0.00,,---,0.00,VWS V14.01,2013-05-05 02:08:00,
2013-05-04 22:13:00,48.7,24.9,30.30,South,173,0.0,0.0,39,0.00,,---,0.00,VWS V14.01,2013-05-05 02:13:00,
2013-05-04 22:18:00,48.7,24.9,30.30,South,173,0.0,0.0,39,0.00,,---,0.00,VWS V14.01,2013-05-05 02:18:00,
2013-05-04 22:23:00,48.6,25.4,30.30,South,173,0.0,0.0,40,0.00,,---,0.00,VWS V14.01,2013-05-05 02:23:00,
2013-05-04 22:28:00,48.4,25.2,30.30,South,173,0.0,0.0,40,0.00,,---,0.00,VWS V14.01,2013-05-05 02:28:00,
2013-05-04 22:33:00,48.0,24.9,30.30,South,173,0.0,0.0,40,0.00,,---,0.00,VWS V14.01,2013-05-05 02:33:00,
2013-05-04 22:38:00,47.8,24.7,30.30,South,173,0.0,0.0,40,0.00,,---,0.00,VWS V14.01,2013-05-05 02:38:00,
2013-05-04 22:43:00,47.7,24.5,30.30,South,173,0.0,0.0,40,0.00,,---,0.00,VWS V14.01,2013-05-05 02:43:00,
2013-05-04 22:48:00,47.5,25.0,30.30,South,173,0.0,0.0,41,0.00,,---,0.00,VWS V14.01,2013-05-05 02:48:00,
2013-05-04 22:53:00,47.1,25.2,30.30,South,173,0.0,0.0,42,0.00,,---,0.00,VWS V14.01,2013-05-05 02:53:00,
2013-05-04 22:58:00,46.9,26.2,30.30,South,173,0.0,0.0,44,0.00,,---,0.00,VWS V14.01,2013-05-05 02:58:00,
2013-05-04 23:03:00,46.6,26.4,30.30,South,173,0.0,0.0,45,0.00,,---,0.00,VWS V14.01,2013-05-05 03:03:00,
2013-05-04 23:08:00,46.4,26.8,30.30,South,173,0.0,0.0,46,0.00,,---,0.00,VWS V14.01,2013-05-05 03:08:00,
2013-05-04 23:13:00,46.2,27.1,30.30,South,173,0.0,0.0,47,0.00,,---,0.00,VWS V14.01,2013-05-05 03:13:00,
2013-05-04 23:18:00,46.0,27.0,30.30,South,173,0.0,0.0,47,0.00,,---,0.00,VWS V14.01,2013-05-05 03:18:00,
2013-05-04 23:23:00,45.9,26.8,30.30,South,173,0.0,0.0,47,0.00,,---,0.00,VWS V14.01,2013-05-05 03:23:00,
2013-05-04 23:28:00,45.5,27.0,30.30,South,173,0.0,0.0,48,0.00,,---,0.00,VWS V14.01,2013-05-05 03:28:00,
2013-05-04 23:33:00,45.1,27.1,30.30,South,173,0.0,0.0,49,0.00,,---,0.00,VWS V14.01,2013-05-05 03:33:00,
2013-05-04 23:38:00,45.1,27.1,30.30,South,173,0.0,0.0,49,0.00,,---,0.00,VWS V14.01,2013-05-05 03:38:00,
2013-05-04 23:43:00,45.0,27.5,30.30,South,173,0.0,0.0,50,0.00,,---,0.00,VWS V14.01,2013-05-05 03:43:00,
2013-05-04 23:48:00,44.8,27.3,30.30,South,173,0.0,0.0,50,0.00,,---,0.00,VWS V14.01,2013-05-05 03:48:00,
2013-05-04 23:53:00,44.8,27.3,30.30,South,173,0.0,0.0,50,0.00,,---,0.00,VWS V14.01,2013-05-05 03:53:00,
2013-05-04 23:58:00,44.6,27.1,30.30,South,173,0.0,0.0,50,0.00,,---,0.00,VWS V14.01,2013-05-05 03:58:00,